DW8769 Cullera ES current weather conditions

sailwx.info

Wind from 095 at 5 knots gusting 9

Air temperature 22.2° C
Dewpoint 18.6° C

Last reported at 2017-Sep-26 15:59 UTC.
Time now 2017-Sep-26 16:37 UTC

Location: N 39°10' W 000°14'.
View on Google Maps.

See reports from other nearby stations

  
Tides and Currents Weather Stations Pressure Air Temp Water Temp Dewpoint Dewpoint Depression Visibility Wind Speed Wind Dir Waves Ship Positions
date/time (UTC)wind fromknots sea level pressurealtimeterstation pressurevisibilityair tempwater tempwave heightnotes
2017-Sep-26 15:59 095 5 gusting 9 22.2
2017-Sep-26 15:44 086 3 gusting 8 22.2
2017-Sep-26 15:29 053 4 gusting 9 22.2
2017-Sep-26 15:15 061 6 gusting 11 22.2
2017-Sep-26 14:59 074 8 gusting 12 22.2
2017-Sep-26 14:44 079 3 gusting 9 22.2
2017-Sep-26 14:29 071 2 gusting 10 22.2
2017-Sep-26 14:14 076 7 gusting 10 22.2
2017-Sep-26 13:59 074 6 gusting 10 22.2
2017-Sep-26 13:44 051 6 gusting 13 22.2
2017-Sep-26 13:29 083 7 gusting 12 22.2
2017-Sep-26 13:14 072 8 gusting 12 22.2
2017-Sep-26 12:59 060 8 gusting 13 22.2
2017-Sep-26 12:44 053 7 gusting 13 22.2
2017-Sep-26 12:29 091 6 gusting 13 22.2
2017-Sep-26 12:14 013 2 gusting 7 22.8
2017-Sep-26 11:59 076 3 gusting 9 22.8
2017-Sep-26 11:44 297 0 gusting 13 22.8
2017-Sep-26 11:29 061 3 gusting 9 22.2
2017-Sep-26 11:14 039 4 gusting 13 22.2
2017-Sep-26 10:59 061 6 gusting 12 22.2
2017-Sep-26 10:44 071 6 gusting 14 22.2
2017-Sep-26 10:29 078 7 gusting 13 22.2
2017-Sep-26 10:14 069 4 gusting 13 22.2
2017-Sep-26 09:59 087 2 gusting 9 22.2
2017-Sep-26 09:44 010 5 gusting 10 22.2
2017-Sep-26 09:29 094 1 gusting 9 22.8
2017-Sep-26 09:14 065 5 gusting 13 22.8
2017-Sep-26 08:59 054 1 gusting 12 22.2
2017-Sep-26 08:44 040 4 gusting 10 22.8
2017-Sep-26 08:29 022 3 gusting 9 22.2
2017-Sep-26 08:14 063 5 gusting 9 22.2
2017-Sep-26 08:00 075 5 gusting 12 22.2
2017-Sep-26 07:44 052 2 gusting 11 21.7
2017-Sep-26 07:29 060 0 gusting 9 22.2
2017-Sep-26 07:14 063 22.2
2017-Sep-26 06:59 030 1 gusting 8 22.2
2017-Sep-26 06:43 068 0 gusting 6 22.2
2017-Sep-26 06:28 074 0 gusting 6 22.2
2017-Sep-26 06:13 028 22.2
2017-Sep-26 05:59 028 22.2
2017-Sep-26 05:43 040 0 gusting 5 22.2
2017-Sep-26 05:28 062 22.2
2017-Sep-26 05:14 081 22.2
2017-Sep-26 04:58 036 22.8
2017-Sep-26 04:43 070 22.8
2017-Sep-26 04:28 054 1 gusting 8 22.8
2017-Sep-26 04:13 064 0 gusting 6 22.8
2017-Sep-26 03:58 048 22.8
2017-Sep-26 03:43 068 22.8
2017-Sep-26 03:32 061 0 gusting 5 22.8
2017-Sep-26 03:18 011 0 gusting 6 22.8
2017-Sep-26 02:58 086 0 gusting 4 22.8
2017-Sep-26 02:43 013 22.8
2017-Sep-26 02:28 360 22.8
2017-Sep-26 02:13 018 22.8
2017-Sep-26 01:58 284 22.8
2017-Sep-26 01:43 028 22.8
2017-Sep-26 01:28 071 0 gusting 6 22.8
2017-Sep-26 01:13 026 1 gusting 7 22.8
2017-Sep-26 00:58 068 22.8
2017-Sep-26 00:43 017 22.8
2017-Sep-26 00:29 059 22.8
2017-Sep-26 00:13 324 0 gusting 6 22.8
2017-Sep-25 23:58 088 0 gusting 7 22.8
2017-Sep-25 23:43 005 1 gusting 10 22.8
2017-Sep-25 23:28 060 2 gusting 9 23.3
2017-Sep-25 23:13 350 1 gusting 9 23.3
2017-Sep-25 22:58 331 4 gusting 13 23.3
2017-Sep-25 22:43 015 2 gusting 7 23.3
2017-Sep-25 22:28 342 23.3
2017-Sep-25 22:13 071 1 gusting 6 23.3
2017-Sep-25 21:58 057 23.9
2017-Sep-25 21:43 315 23.3
2017-Sep-25 21:28 009 1 gusting 6 23.3
2017-Sep-25 21:13 042 0 gusting 6 23.3
2017-Sep-25 20:58 011 1 gusting 8 23.3
2017-Sep-25 20:43 034 1 gusting 7 23.9
2017-Sep-25 20:28 026 2 gusting 9 23.9
2017-Sep-25 20:13 286 1 gusting 9 23.9
2017-Sep-25 19:58 286 23.9
2017-Sep-25 19:43 136 2 gusting 11 23.3
2017-Sep-25 19:28 309 1 gusting 6 23.9
2017-Sep-25 19:13 302 23.9
2017-Sep-25 18:58 068 1 gusting 9 23.9
2017-Sep-25 18:43 360 0 gusting 6 24.4
2017-Sep-25 18:28 355 2 gusting 8 24.4
2017-Sep-25 18:13 042 1 gusting 7 25.0
2017-Sep-25 17:57 069 1 gusting 11 25.0
2017-Sep-25 17:43 344 4 gusting 14 26.1
2017-Sep-25 17:28 355 1 gusting 10 27.2
2017-Sep-25 17:12 033 2 gusting 6 28.3
2017-Sep-25 16:58 323 28.3
2017-Sep-25 16:43 129 28.9
2017-Sep-25 16:28 095 28.3
2017-Sep-25 16:13 105 28.9
2017-Sep-25 15:58 128 1 gusting 9 29.4
2017-Sep-25 15:43 119 1 gusting 7 28.9
2017-Sep-25 15:28 123 1 gusting 7 28.9
2017-Sep-25 15:12 065 1 gusting 10 29.4
2017-Sep-25 14:57 098 2 gusting 11 30.0
2017-Sep-25 14:42 094 1 gusting 7 29.4
2017-Sep-25 14:27 355 0 gusting 5 28.9
2017-Sep-25 14:12 203 2 gusting 10 30.0
2017-Sep-25 13:57 161 3 gusting 11 33.9
2017-Sep-25 13:42 267 3 gusting 10 33.9
2017-Sep-25 13:27 236 3 gusting 13 33.3
2017-Sep-25 13:12 255 4 gusting 13 33.3
2017-Sep-25 12:57 360 6 gusting 13 33.3
2017-Sep-25 12:42 343 6 gusting 18 32.8
2017-Sep-25 12:27 281 6 gusting 14 32.2
2017-Sep-25 12:12 320 4 gusting 16 32.8
2017-Sep-25 11:57 360 2 gusting 8 32.2
2017-Sep-25 11:42 273 2 gusting 8 31.7
2017-Sep-25 11:27 013 3 gusting 12 31.7
2017-Sep-25 11:12 255 5 gusting 9 31.1
2017-Sep-25 10:57 263 5 gusting 9 30.6
2017-Sep-25 10:42 355 5 gusting 11 30.6
2017-Sep-25 10:27 355 3 gusting 13 30.0
2017-Sep-25 10:12 337 2 gusting 13 29.4
2017-Sep-25 09:57 350 2 gusting 11 29.4
2017-Sep-25 09:41 355 2 gusting 7 28.9
2017-Sep-25 09:27 260 3 gusting 10 28.3
2017-Sep-25 09:11 292 3 gusting 10 27.8
2017-Sep-25 08:56 106 26.7
2017-Sep-25 08:41 057 25.6
2017-Sep-25 08:26 355 26.7
2017-Sep-25 08:11 317 26.7
2017-Sep-25 07:56 317 26.7
2017-Sep-25 07:41 317 25.6
2017-Sep-25 07:26 341 24.4
2017-Sep-25 07:11 311 22.8
2017-Sep-25 06:56 030 23.3
2017-Sep-25 06:41 030 21.7
2017-Sep-25 06:26 030 21.1
2017-Sep-25 06:11 032 22.2
2017-Sep-25 05:56 032 21.7
2017-Sep-25 05:41 032 21.7
2017-Sep-25 05:26 032 21.1
2017-Sep-25 05:11 032 21.7
2017-Sep-25 04:56 032 21.7
2017-Sep-25 04:40 032 21.7
2017-Sep-25 04:26 032 21.7
2017-Sep-25 04:10 032 21.7
2017-Sep-25 03:56 334 21.1
2017-Sep-25 03:40 330 20.6
2017-Sep-25 03:31 330 20.6
2017-Sep-25 03:14 330 20.6
2017-Sep-25 02:56 330 20.6
2017-Sep-25 02:41 330 20.6
2017-Sep-25 02:25 059 21.1
2017-Sep-25 02:10 058 21.7
2017-Sep-25 01:55 059 21.7
2017-Sep-25 01:40 059 21.7
2017-Sep-25 01:25 059 22.2
2017-Sep-25 01:10 059 22.2
2017-Sep-25 00:55 059 23.3
2017-Sep-25 00:40 061 23.3
2017-Sep-25 00:25 065 23.3
2017-Sep-25 00:10 065 23.3
2017-Sep-24 23:55 355 0 gusting 3 23.3
2017-Sep-24 23:40 325 23.3
2017-Sep-24 23:25 348 23.3
2017-Sep-24 23:10 321 23.9
2017-Sep-24 22:55 030 25.0
2017-Sep-24 22:40 288 2 gusting 8 25.0
2017-Sep-24 22:25 323 5 gusting 11 25.6
2017-Sep-24 22:10 334 9 gusting 13 26.1
2017-Sep-24 21:55 327 8 gusting 14 26.1
2017-Sep-24 21:40 290 6 gusting 10 26.7
2017-Sep-24 21:25 340 6 gusting 11 27.2
2017-Sep-24 21:10 325 3 gusting 10 27.2
2017-Sep-24 20:55 355 3 gusting 7 27.2
2017-Sep-24 20:40 282 4 gusting 7 27.2
2017-Sep-24 20:25 350 26.7
2017-Sep-24 20:10 037 26.7
2017-Sep-24 19:55 037 26.1
2017-Sep-24 19:40 149 26.1
2017-Sep-24 19:24 155 26.1
2017-Sep-24 19:09 159 26.7
2017-Sep-24 18:55 161 26.7
2017-Sep-24 18:40 161 26.7
2017-Sep-24 18:25 195 0 gusting 5 26.7
2017-Sep-24 18:09 329 27.2
2017-Sep-24 17:54 109 27.2
2017-Sep-24 17:39 015 27.2
2017-Sep-24 17:24 109 26.7
2017-Sep-24 17:09 126 2 gusting 11 26.7
2017-Sep-24 16:54 118 2 gusting 10 26.7
2017-Sep-24 16:39 121 3 gusting 11 27.2
2017-Sep-24 16:24 119 1 gusting 9 27.8
2017-Sep-24 16:09 146 27.8